Istanbul, Turkey

3:31 PM +03 on December 03, 2016 (GMT +0300)
Ataturk

Weather History for LTBA - February, 2014

Change the Weather History Date:

Thursday, February 27, 2014

  Actual Average Record
Temperature  
Mean Temperature 42 °F -  
Max Temperature 48 °F 51 °F 66 °F (2004)
Min Temperature 36 °F 40 °F 32 °F (2003)
Degree Days  
Heating Degree Days 23    
Moisture  
Dew Point 35 °F    
Average Humidity 69    
Maximum Humidity 81    
Minimum Humidity 50    
Precipitation  
Precipitation 0.00 in - - ()
Sea Level Pressure  
Sea Level Pressure 30.24 in    
Wind  
Wind Speed 1 mph ()    
Max Wind Speed 7 mph    
Max Gust Speed 16 mph    
Visibility 5.8 miles    
Events      
Averages and records for this station are not official NWS values.
T = Trace of Precipitation, MM = Missing Value Source: Averaged Metar Reports

Daily Weather History Graph

Daily Weather History Graph

Search for Another Location

Airport or City:

Trip Planner

Search our weather history database for the weather conditions in past years. The results will help you decide how hot, cold, wet, or windy it might be!

Date:

Astronomy

Feb. 27, 2014 Rise Set
Actual Time 6:42 AM EET 5:53 PM EET
Civil Twilight 6:14 AM EET 6:20 PM EET
Nautical Twilight 5:42 AM EET 6:52 PM EET
Astronomical Twilight 5:11 AM EET 7:24 PM EET
Moon 5:00 AM EET (2/27) 3:54 PM EET (2/27)
Length of Visible Light 12h 06m
Length of Day
11h 10m
Waning Crescent, 5% of the Moon is Illuminated
Feb 27
Waning Crescent
Mar 1
New
Mar 8
First Quarter
Mar 16
Full
Mar 24
Last Quarter

Hourly Weather History & Observations

Time (EET) Temp. Windchill Dew Point Humidity Pressure Visibility Wind Dir Wind Speed Gust Speed Precip Events Conditions
12:20 AM 39.2 °F - 30.2 °F 70% 30.24 in 5.0 mi NNE 1.2 mph - N/A   Scattered Clouds
12:50 AM 41.0 °F - 32.0 °F 70% 30.24 in 4.3 mi Calm Calm - N/A   Partly Cloudy
1:20 AM 41.0 °F - 32.0 °F 70% 30.24 in 4.3 mi Variable 2.3 mph - N/A   Scattered Clouds
1:50 AM 42.8 °F - 32.0 °F 66% 30.24 in 4.3 mi Variable 1.2 mph - N/A   Scattered Clouds
2:00 AM 42 °F - 32 °F 56% 30.26 in 4 mi NE 1.2 mph - -   Haze
2:20 AM 39.2 °F - 32.0 °F 75% 30.24 in 4.3 mi Calm Calm - N/A   Scattered Clouds
2:50 AM 39.2 °F - 33.8 °F 81% 30.24 in 4.3 mi Calm Calm - N/A   Scattered Clouds
3:20 AM 41.0 °F - 33.8 °F 76% 30.24 in 4.3 mi Calm Calm - N/A   Scattered Clouds
3:50 AM 39.2 °F - 33.8 °F 81% 30.24 in 4.3 mi Calm Calm - N/A   Scattered Clouds
4:20 AM 41.0 °F - 33.8 °F 76% 30.24 in 4.3 mi Calm Calm - N/A   Scattered Clouds
4:50 AM 41.0 °F - 33.8 °F 76% 30.24 in 5.0 mi Calm Calm - N/A   Scattered Clouds
5:00 AM 41 °F - 33 °F 66% 30.26 in 5 mi Calm Calm - -   Mist
5:20 AM 41.0 °F - 33.8 °F 76% 30.24 in 6.2 mi Variable 2.3 mph - N/A   Mostly Cloudy
5:50 AM 41.0 °F 39.0 °F 33.8 °F 76% 30.24 in 6.2 mi Variable 3.5 mph - N/A   Mostly Cloudy
6:20 AM 41.0 °F - 33.8 °F 76% 30.24 in 6.2 mi Variable 1.2 mph - N/A   Mostly Cloudy
6:50 AM 41.0 °F - 33.8 °F 76% 30.24 in 3.7 mi Variable 1.2 mph - N/A   Mostly Cloudy
7:20 AM 42.8 °F - 33.8 °F 70% 30.24 in 3.7 mi Variable 1.2 mph - N/A   Mostly Cloudy
7:50 AM 42.8 °F - 33.8 °F 70% 30.24 in 5.0 mi Calm Calm - N/A   Mostly Cloudy
8:00 AM 44 °F - 34 °F 58% 30.27 in 5 mi Calm Calm - -   Haze
8:20 AM 44.6 °F - 33.8 °F 66% 30.27 in 5.6 mi Calm Calm - N/A   Mostly Cloudy
8:50 AM 44.6 °F - 35.6 °F 71% 30.27 in 5.6 mi Variable 2.3 mph 15.0 mph N/A   Mostly Cloudy
9:20 AM 46.4 °F 45.2 °F 35.6 °F 66% 30.27 in 6.2 mi ESE 3.5 mph - N/A   Mostly Cloudy
9:50 AM 44.6 °F - 35.6 °F 71% 30.27 in 6.2 mi Calm Calm - N/A   Mostly Cloudy
10:20 AM 44.6 °F - 33.8 °F 66% 30.27 in 6.2 mi Calm Calm - N/A   Mostly Cloudy
10:50 AM 44.6 °F - 35.6 °F 71% 30.27 in 6.2 mi Calm Calm - N/A   Mostly Cloudy
11:00 AM 45 °F - 34 °F 55% 30.29 in 12 mi Calm Calm - -   Mostly Cloudy
11:20 AM 44.6 °F - 35.6 °F 71% 30.27 in 6.2 mi Calm Calm - N/A   Mostly Cloudy
11:50 AM 44.6 °F - 37.4 °F 76% 30.27 in 6.2 mi Calm Calm - N/A   Mostly Cloudy
12:20 PM 46.4 °F - 35.6 °F 66% 30.27 in 6.2 mi Calm Calm - N/A   Mostly Cloudy
12:50 PM 46.4 °F - 35.6 °F 66% 30.24 in 6.2 mi Calm Calm - N/A   Mostly Cloudy
1:20 PM 46.4 °F - 37.4 °F 71% 30.24 in 6.2 mi Calm Calm - N/A   Mostly Cloudy
1:50 PM 46.4 °F - 37.4 °F 71% 30.24 in 6.2 mi Variable 1.2 mph - N/A   Mostly Cloudy
2:00 PM 47 °F - 38 °F 62% 30.27 in 6 mi SW 1.2 mph - -   Mostly Cloudy
2:20 PM 46.4 °F 45.2 °F 37.4 °F 71% 30.24 in 6.2 mi SSW 3.5 mph - N/A   Mostly Cloudy
2:50 PM 46.4 °F - 35.6 °F 66% 30.24 in 6.2 mi Variable 2.3 mph - N/A   Mostly Cloudy
3:20 PM 46.4 °F - 37.4 °F 71% 30.24 in 6.2 mi Calm Calm - N/A   Mostly Cloudy
3:50 PM 46.4 °F - 35.6 °F 66% 30.24 in 6.2 mi Calm Calm - N/A   Mostly Cloudy
4:20 PM 46.4 °F - 37.4 °F 71% 30.24 in 6.2 mi Calm Calm - N/A   Mostly Cloudy
4:50 PM 48.2 °F - 35.6 °F 62% 30.24 in 6.2 mi Calm Calm - N/A   Mostly Cloudy
5:00 PM 47 °F - 34 °F 50% 30.25 in 6 mi Calm Calm - -   Mostly Cloudy
5:20 PM 46.4 °F - 33.8 °F 62% 30.21 in 6.2 mi Calm Calm - N/A   Mostly Cloudy
5:50 PM 46.4 °F - 35.6 °F 66% 30.21 in 6.2 mi Calm Calm - N/A   Mostly Cloudy
6:20 PM 46.4 °F - 33.8 °F 62% 30.21 in 6.2 mi Calm Calm - N/A   Scattered Clouds
6:50 PM 46.4 °F - 33.8 °F 62% 30.21 in 6.2 mi Calm Calm - N/A   Partly Cloudy
7:20 PM 46.4 °F - 37.4 °F 71% 30.21 in 6.2 mi Variable 2.3 mph - N/A   Scattered Clouds
7:50 PM 48.2 °F - 37.4 °F 66% 30.21 in 6.2 mi ESE 6.9 mph - N/A   Scattered Clouds
8:00 PM 48 °F - 37 °F 54% 30.24 in 6 mi ESE 6.9 mph - -   Partly Cloudy
8:20 PM 48.2 °F - 37.4 °F 66% 30.21 in 6.2 mi ESE 4.6 mph 16.1 mph N/A   Scattered Clouds
8:50 PM 46.4 °F 45.2 °F 35.6 °F 66% 30.21 in 6.2 mi SE 3.5 mph - N/A   Scattered Clouds
9:20 PM 48.2 °F - 37.4 °F 66% 30.21 in 6.2 mi ESE 3.5 mph - N/A   Scattered Clouds
9:50 PM 46.4 °F - 37.4 °F 71% 30.21 in 6.2 mi Variable 1.2 mph - N/A   Scattered Clouds
10:20 PM 44.6 °F - 37.4 °F 76% 30.21 in 6.2 mi Calm Calm - N/A   Scattered Clouds
10:50 PM 44.6 °F - 37.4 °F 76% 30.21 in 6.2 mi Calm Calm - N/A   Scattered Clouds
11:00 PM 45 °F - 38 °F 67% 30.23 in 6 mi Calm Calm - -   Partly Cloudy
11:20 PM 44.6 °F - 39.2 °F 81% 30.21 in 6.2 mi Calm Calm - N/A   Scattered Clouds
11:50 PM 44.6 °F - 39.2 °F 81% 30.21 in 6.2 mi Calm Calm - N/A   Scattered Clouds